Location: *
(60.1759°S, 155.0663°W)
Time: 23:31:30
(UTC+00:00)

Meteor 2-6 Rocket - Pass Details

Date: 17 September 2019
Orbit: 806 x 914 km, 81.3° (Epoch: 21 October)

Event Time Altitude Azimuth Distance (km) Brightness Sun altitude
Rises 12:25:42 0° 198° (SSW) 3,371 7.8 -26.9°
Reaches altitude 10° 12:28:07 10° 196° (SSW) 2,435 7.0 -26.7°
Maximum altitude 12:33:38 81° 108° (ESE) 846 4.1 -26.3°
Enters shadow 12:34:53 55° 32° (NNE) 993 4.4 -26.2°
